Time,TemperatureF,DewpointF,PressureIn,WindDirection,WindDirectionDegrees,WindSpeedMPH,WindSpeedGustMPH,Humidity,HourlyPrecipIn,Conditions,Clouds,dailyrainin,SoftwareType,DateUTC
2012-04-16 00:01:00,54.0,53.7,29.83,NE,43,0.0,0.0,99,0.00,,,0.71,VWS V13.01,2012-04-16 05:01:00,
2012-04-16 00:06:00,53.8,53.5,29.83,NE,43,0.0,0.0,99,0.00,,,0.00,VWS V13.01,2012-04-16 05:06:00,
2012-04-16 00:11:00,53.8,53.5,29.83,NE,43,0.0,0.0,99,0.00,,,0.00,VWS V13.01,2012-04-16 05:11:00,
2012-04-16 00:16:00,53.6,53.3,29.83,NE,43,0.0,0.0,99,0.00,,,0.00,VWS V13.01,2012-04-16 05:16:00,
2012-04-16 00:21:00,53.4,53.2,29.83,NE,43,0.0,0.0,99,0.00,,,0.00,VWS V13.01,2012-04-16 05:21:00,
2012-04-16 00:26:00,53.4,53.2,29.83,NE,43,0.0,0.0,99,0.00,,,0.00,VWS V13.01,2012-04-16 05:26:00,
2012-04-16 00:31:00,53.2,53.0,29.85,NW,321,0.0,0.0,99,0.00,,,0.00,VWS V13.01,2012-04-16 05:31:00,
2012-04-16 00:36:00,53.2,53.2,29.85,WNW,301,0.0,0.0,100,0.00,,,0.00,VWS V13.01,2012-04-16 05:36:00,
2012-04-16 00:42:00,53.2,53.2,29.85,North,351,0.0,0.0,100,0.00,,,0.00,VWS V13.01,2012-04-16 05:42:00,
2012-04-16 00:47:00,53.1,53.1,29.85,NNW,344,0.0,0.0,100,0.00,,,0.00,VWS V13.01,2012-04-16 05:47:00,
2012-04-16 00:52:00,52.7,52.7,29.85,NNW,344,0.0,0.0,100,0.00,,,0.00,VWS V13.01,2012-04-16 05:52:00,
2012-04-16 00:57:00,52.7,52.7,29.85,NNW,344,0.0,0.0,100,0.00,,,0.00,VWS V13.01,2012-04-16 05:57:00,
2012-04-16 01:02:00,52.7,52.7,29.85,NNW,344,0.0,0.0,100,0.00,,,0.00,VWS V13.01,2012-04-16 06:02:00,
2012-04-16 01:07:00,52.7,52.7,29.85,NNE,30,0.0,0.0,100,0.00,,,0.00,VWS V13.01,2012-04-16 06:07:00,
2012-04-16 01:11:00,52.5,52.5,29.85,NNE,30,0.0,0.0,100,0.00,,,0.00,VWS V13.01,2012-04-16 06:11:00,
2012-04-16 01:16:00,52.0,52.0,29.85,NNE,30,0.0,0.0,100,0.00,,,0.00,VWS V13.01,2012-04-16 06:16:00,
2012-04-16 01:21:00,52.2,52.2,29.85,North,354,0.0,0.0,100,0.00,,,0.00,VWS V13.01,2012-04-16 06:21:00,
2012-04-16 01:26:00,52.0,52.0,29.85,North,354,0.0,0.0,100,0.00,,,0.00,VWS V13.01,2012-04-16 06:26:00,
2012-04-16 01:32:00,51.8,51.8,29.88,North,354,0.0,0.0,100,0.00,,,0.00,VWS V13.01,2012-04-16 06:32:00,
2012-04-16 01:37:00,51.6,51.6,29.88,North,354,0.0,0.0,100,0.00,,,0.00,VWS V13.01,2012-04-16 06:37:00,
2012-04-16 01:42:00,51.6,51.6,29.88,North,354,0.0,0.0,100,0.00,,,0.00,VWS V13.01,2012-04-16 06:42:00,
2012-04-16 01:47:00,51.4,51.4,29.85,North,354,0.0,0.0,100,0.00,,,0.00,VWS V13.01,2012-04-16 06:47:00,
2012-04-16 01:52:00,51.4,51.4,29.85,North,354,0.0,0.0,100,0.00,,,0.00,VWS V13.01,2012-04-16 06:52:00,
2012-04-16 01:57:00,51.4,51.4,29.85,North,354,0.0,0.0,100,0.00,,,0.00,VWS V13.01,2012-04-16 06:57:00,
2012-04-16 02:02:00,51.4,51.4,29.88,North,354,0.0,0.0,100,0.00,,,0.00,VWS V13.01,2012-04-16 07:02:00,
2012-04-16 02:07:00,51.3,51.3,29.88,North,353,0.0,0.0,100,0.00,,,0.00,VWS V13.01,2012-04-16 07:07:00,
2012-04-16 02:12:00,51.3,51.3,29.88,North,353,0.0,0.0,100,0.00,,,0.00,VWS V13.01,2012-04-16 07:12:00,
2012-04-16 02:17:00,51.3,51.3,29.88,North,354,0.0,0.0,100,0.00,,,0.00,VWS V13.01,2012-04-16 07:17:00,
2012-04-16 02:22:00,51.1,51.1,29.88,North,354,0.0,0.0,100,0.00,,,0.00,VWS V13.01,2012-04-16 07:22:00,
2012-04-16 02:27:00,50.9,50.9,29.88,North,354,0.0,0.0,100,0.00,,,0.00,VWS V13.01,2012-04-16 07:27:00,
2012-04-16 02:32:00,50.7,50.7,29.88,North,354,0.0,0.0,100,0.00,,,0.00,VWS V13.01,2012-04-16 07:32:00,
2012-04-16 02:37:00,50.5,50.5,29.88,North,354,0.0,0.0,100,0.00,,,0.00,VWS V13.01,2012-04-16 07:37:00,
2012-04-16 02:42:00,50.5,50.5,29.88,North,354,0.0,0.0,100,0.00,,,0.00,VWS V13.01,2012-04-16 07:42:00,
2012-04-16 02:47:00,50.4,50.4,29.91,North,354,0.0,0.0,100,0.00,,,0.00,VWS V13.01,2012-04-16 07:47:00,
2012-04-16 02:52:00,50.4,50.4,29.91,North,354,0.0,0.0,100,0.00,,,0.00,VWS V13.01,2012-04-16 07:52:00,
2012-04-16 02:57:00,50.4,50.4,29.91,North,354,0.0,0.0,100,0.00,,,0.00,VWS V13.01,2012-04-16 07:57:00,
2012-04-16 03:02:00,50.4,50.4,29.91,North,354,0.0,0.0,100,0.00,,,0.00,VWS V13.01,2012-04-16 08:02:00,
2012-04-16 03:07:00,50.2,50.2,29.91,NNE,23,0.0,0.0,100,0.00,,,0.00,VWS V13.01,2012-04-16 08:07:00,
2012-04-16 03:12:00,50.0,50.0,29.91,NNE,23,0.0,0.0,100,0.00,,,0.00,VWS V13.01,2012-04-16 08:12:00,
2012-04-16 03:17:00,49.8,49.8,29.91,NNE,22,0.0,0.0,100,0.00,,,0.00,VWS V13.01,2012-04-16 08:17:00,
2012-04-16 03:22:00,49.6,49.6,29.91,NNE,23,0.0,0.0,100,0.00,,,0.00,VWS V13.01,2012-04-16 08:22:00,
2012-04-16 03:27:00,49.8,49.8,29.91,WNW,285,0.0,0.0,100,0.00,,,0.00,VWS V13.01,2012-04-16 08:27:00,
2012-04-16 03:32:00,50.0,50.0,29.91,WSW,249,0.0,0.0,100,0.00,,,0.00,VWS V13.01,2012-04-16 08:32:00,
2012-04-16 03:37:00,50.2,50.2,29.91,WSW,249,0.0,0.0,100,0.00,,,0.00,VWS V13.01,2012-04-16 08:37:00,
2012-04-16 03:42:00,50.4,50.4,29.91,WSW,249,0.0,0.0,100,0.00,,,0.00,VWS V13.01,2012-04-16 08:42:00,
2012-04-16 03:47:00,50.5,50.5,29.91,WSW,249,0.0,0.0,100,0.00,,,0.00,VWS V13.01,2012-04-16 08:47:00,
2012-04-16 03:52:00,50.5,50.5,29.91,WSW,249,0.0,0.0,100,0.00,,,0.00,VWS V13.01,2012-04-16 08:52:00,
2012-04-16 03:57:00,50.9,50.9,29.91,WSW,249,0.0,0.0,100,0.00,,,0.00,VWS V13.01,2012-04-16 08:57:00,
2012-04-16 04:02:00,51.1,51.1,29.94,WSW,249,0.0,0.0,100,0.00,,,0.00,VWS V13.01,2012-04-16 09:02:00,
2012-04-16 04:07:00,51.3,51.3,29.94,WSW,249,0.0,0.0,100,0.00,,,0.00,VWS V13.01,2012-04-16 09:07:00,
2012-04-16 04:12:00,51.3,51.3,29.94,WSW,249,0.0,0.0,100,0.00,,,0.00,VWS V13.01,2012-04-16 09:12:00,
2012-04-16 04:17:00,51.4,51.4,29.94,WSW,249,0.0,0.0,100,0.00,,,0.00,VWS V13.01,2012-04-16 09:17:00,
2012-04-16 04:22:00,51.6,51.6,29.94,WSW,249,0.0,0.0,100,0.00,,,0.00,VWS V13.01,2012-04-16 09:22:00,
2012-04-16 04:27:00,51.6,51.6,29.94,WSW,249,0.0,0.0,100,0.00,,,0.00,VWS V13.01,2012-04-16 09:27:00,
2012-04-16 04:33:00,51.6,51.6,29.97,WSW,249,0.0,0.0,100,0.00,,,0.00,VWS V13.01,2012-04-16 09:33:00,
2012-04-16 04:38:00,51.8,51.8,29.97,WSW,249,0.0,0.0,100,0.00,,,0.00,VWS V13.01,2012-04-16 09:38:00,
2012-04-16 04:43:00,51.8,51.8,29.97,WSW,249,0.0,0.0,100,0.00,,,0.00,VWS V13.01,2012-04-16 09:43:00,
2012-04-16 04:48:00,52.0,52.0,29.97,WSW,249,0.0,0.0,100,0.00,,,0.00,VWS V13.01,2012-04-16 09:48:00,
2012-04-16 04:53:00,52.2,52.2,29.97,WSW,249,0.0,0.0,100,0.00,,,0.00,VWS V13.01,2012-04-16 09:53:00,
2012-04-16 04:58:00,52.3,52.3,29.97,WSW,249,0.0,0.0,100,0.00,,,0.00,VWS V13.01,2012-04-16 09:58:00,
2012-04-16 05:03:00,52.5,52.5,30.00,WSW,249,0.0,0.0,100,0.00,,,0.00,VWS V13.01,2012-04-16 10:03:00,
2012-04-16 05:08:00,52.7,52.7,30.00,WSW,249,0.0,0.0,100,0.00,,,0.00,VWS V13.01,2012-04-16 10:08:00,
2012-04-16 05:13:00,52.7,52.7,30.00,NW,308,0.0,0.0,100,0.00,,,0.00,VWS V13.01,2012-04-16 10:13:00,
2012-04-16 05:18:00,52.7,52.7,30.00,NW,308,0.0,0.0,100,0.00,,,0.00,VWS V13.01,2012-04-16 10:18:00,
2012-04-16 05:23:00,52.7,52.7,30.00,NW,308,0.0,0.0,100,0.00,,,0.00,VWS V13.01,2012-04-16 10:23:00,
2012-04-16 05:28:00,52.7,52.7,30.00,NW,309,0.0,0.0,100,0.00,,,0.00,VWS V13.01,2012-04-16 10:28:00,
2012-04-16 05:33:00,52.7,52.7,30.00,NW,309,0.0,0.0,100,0.00,,,0.00,VWS V13.01,2012-04-16 10:33:00,
2012-04-16 05:39:00,52.7,52.7,30.00,WNW,301,2.7,2.7,100,0.00,,,0.00,VWS V13.01,2012-04-16 10:39:00,
2012-04-16 05:44:00,52.7,52.7,30.00,NW,309,2.7,2.7,100,0.00,,,0.00,VWS V13.01,2012-04-16 10:44:00,
2012-04-16 05:49:00,52.5,52.5,30.00,WNW,284,0.0,0.0,100,0.00,,,0.00,VWS V13.01,2012-04-16 10:49:00,
2012-04-16 05:53:00,52.3,52.3,30.00,WNW,284,0.0,0.0,100,0.00,,,0.00,VWS V13.01,2012-04-16 10:53:00,
2012-04-16 05:58:00,52.3,52.3,30.00,WNW,290,3.1,3.1,100,0.00,,,0.00,VWS V13.01,2012-04-16 10:58:00,
2012-04-16 06:03:00,52.2,52.2,30.00,WSW,247,0.0,0.0,100,0.00,,,0.00,VWS V13.01,2012-04-16 11:03:00,
2012-04-16 06:08:00,52.3,52.3,30.00,West,266,0.0,0.0,100,0.00,,,0.00,VWS V13.01,2012-04-16 11:08:00,
2012-04-16 06:13:00,52.3,52.3,30.00,WSW,249,2.2,2.7,100,0.00,,,0.00,VWS V13.01,2012-04-16 11:13:00,
2012-04-16 06:18:00,52.2,52.2,30.00,NW,306,3.6,4.0,100,0.00,,,0.00,VWS V13.01,2012-04-16 11:18:00,
2012-04-16 06:23:00,52.0,52.0,30.00,WSW,254,2.2,2.2,100,0.00,,,0.00,VWS V13.01,2012-04-16 11:23:00,
2012-04-16 06:28:00,52.0,52.0,30.00,WSW,255,3.1,3.1,100,0.00,,,0.00,VWS V13.01,2012-04-16 11:28:00,
2012-04-16 06:34:00,52.0,52.0,30.00,SW,234,0.0,0.0,100,0.00,,,0.00,VWS V13.01,2012-04-16 11:34:00,
2012-04-16 06:39:00,51.8,51.8,30.00,SW,229,3.1,3.1,100,0.00,,,0.00,VWS V13.01,2012-04-16 11:39:00,
2012-04-16 06:44:00,51.8,51.8,30.00,WSW,253,2.7,2.7,100,0.00,,,0.00,VWS V13.01,2012-04-16 11:44:00,
2012-04-16 06:49:00,51.8,51.8,30.00,WSW,258,0.0,0.0,100,0.00,,,0.00,VWS V13.01,2012-04-16 11:49:00,
2012-04-16 06:54:00,51.6,51.6,30.00,SW,235,2.7,3.6,100,0.00,,,0.00,VWS V13.01,2012-04-16 11:54:00,
2012-04-16 06:59:00,51.6,51.6,30.00,SW,234,2.7,2.7,100,0.00,,,0.00,VWS V13.01,2012-04-16 11:59:00,
2012-04-16 07:04:00,51.6,51.6,30.03,SW,236,5.4,5.4,100,0.00,,,0.00,VWS V13.01,2012-04-16 12:04:00,
2012-04-16 07:09:00,51.6,51.6,30.03,WSW,252,2.2,2.2,100,0.00,,,0.00,VWS V13.01,2012-04-16 12:09:00,
2012-04-16 07:14:00,51.4,51.4,30.03,WSW,252,0.0,0.0,100,0.00,,,0.00,VWS V13.01,2012-04-16 12:14:00,
2012-04-16 07:19:00,51.6,51.6,30.03,South,169,2.7,2.7,100,0.00,,,0.00,VWS V13.01,2012-04-16 12:19:00,
2012-04-16 07:24:00,51.4,51.4,30.03,SE,136,3.1,3.6,100,0.00,,,0.00,VWS V13.01,2012-04-16 12:24:00,
2012-04-16 07:29:00,51.4,51.4,30.06,SW,235,0.0,0.0,100,0.00,,,0.00,VWS V13.01,2012-04-16 12:29:00,
2012-04-16 07:34:00,51.4,51.4,30.06,WSW,244,2.7,3.1,100,0.00,,,0.00,VWS V13.01,2012-04-16 12:34:00,
2012-04-16 07:39:00,51.4,51.4,30.06,SW,230,0.0,2.7,100,0.00,,,0.00,VWS V13.01,2012-04-16 12:39:00,
2012-04-16 07:44:00,51.4,51.4,30.06,SSW,212,0.0,0.0,100,0.00,,,0.00,VWS V13.01,2012-04-16 12:44:00,
2012-04-16 07:49:00,51.3,51.3,30.06,WSW,254,0.0,0.0,100,0.00,,,0.00,VWS V13.01,2012-04-16 12:49:00,
2012-04-16 07:55:00,51.4,51.4,30.06,WSW,246,3.1,3.1,100,0.00,,,0.00,VWS V13.01,2012-04-16 12:55:00,
2012-04-16 08:00:00,51.4,51.4,30.06,West,265,3.1,3.1,100,0.00,,,0.00,VWS V13.01,2012-04-16 13:00:00,
2012-04-16 08:06:00,51.4,51.4,30.06,West,271,3.6,4.0,100,0.00,,,0.00,VWS V13.01,2012-04-16 13:06:00,
2012-04-16 08:11:00,51.6,51.6,30.06,WNW,303,2.7,5.4,100,0.00,,,0.00,VWS V13.01,2012-04-16 13:11:00,
2012-04-16 08:16:00,51.6,51.6,30.06,NW,317,3.1,3.1,100,0.00,,,0.00,VWS V13.01,2012-04-16 13:16:00,
2012-04-16 08:21:00,51.8,51.8,30.06,WSW,255,3.1,3.1,100,0.00,,,0.00,VWS V13.01,2012-04-16 13:21:00,
2012-04-16 08:26:00,51.6,51.6,30.06,SW,231,2.7,3.6,100,0.00,,,0.00,VWS V13.01,2012-04-16 13:26:00,
2012-04-16 08:31:00,51.8,51.8,30.09,WNW,298,0.0,0.0,100,0.00,,,0.00,VWS V13.01,2012-04-16 13:31:00,
2012-04-16 08:36:00,51.8,51.8,30.09,West,270,2.2,2.2,100,0.00,,,0.00,VWS V13.01,2012-04-16 13:36:00,
2012-04-16 08:41:00,52.0,52.0,30.09,WSW,251,3.1,3.6,100,0.00,,,0.00,VWS V13.01,2012-04-16 13:41:00,
2012-04-16 08:46:00,52.0,52.0,30.09,West,268,3.1,3.1,100,0.00,,,0.00,VWS V13.01,2012-04-16 13:46:00,
2012-04-16 08:51:00,52.2,52.2,30.09,West,259,2.7,3.6,100,0.00,,,0.00,VWS V13.01,2012-04-16 13:51:00,
2012-04-16 08:56:00,52.7,52.7,30.09,WNW,299,2.7,3.6,100,0.00,,,0.00,VWS V13.01,2012-04-16 13:56:00,
2012-04-16 09:01:00,52.9,52.9,30.09,WSW,241,0.0,0.0,100,0.00,,,0.00,VWS V13.01,2012-04-16 14:01:00,
2012-04-16 09:06:00,53.1,53.1,30.09,SSE,150,0.0,0.0,100,0.00,,,0.00,VWS V13.01,2012-04-16 14:06:00,
2012-04-16 09:11:00,53.8,53.8,30.09,SW,225,0.0,0.0,100,0.00,,,0.00,VWS V13.01,2012-04-16 14:11:00,
2012-04-16 09:16:00,54.1,54.1,30.09,South,181,3.1,3.1,100,0.00,,,0.00,VWS V13.01,2012-04-16 14:16:00,
2012-04-16 09:21:00,54.5,54.5,30.09,SW,236,0.0,0.0,100,0.00,,,0.00,VWS V13.01,2012-04-16 14:21:00,
2012-04-16 09:26:00,55.0,55.0,30.09,WSW,242,0.0,0.0,100,0.00,,,0.00,VWS V13.01,2012-04-16 14:26:00,
2012-04-16 09:31:00,55.2,55.2,30.09,WSW,254,3.1,5.4,100,0.00,,,0.00,VWS V13.01,2012-04-16 14:31:00,
2012-04-16 09:36:00,54.9,54.9,30.09,SW,223,3.6,3.6,100,0.00,,,0.00,VWS V13.01,2012-04-16 14:36:00,
2012-04-16 09:41:00,55.6,55.3,30.09,West,260,4.0,4.0,99,0.00,,,0.00,VWS V13.01,2012-04-16 14:41:00,
2012-04-16 09:47:00,55.9,53.4,30.09,WSW,238,3.6,3.6,91,0.00,,,0.00,VWS V13.01,2012-04-16 14:47:00,
2012-04-16 09:52:00,56.7,48.5,30.09,West,268,5.4,5.4,74,0.00,,,0.00,VWS V13.01,2012-04-16 14:52:00,
2012-04-16 09:57:00,57.0,45.0,30.09,SW,224,3.1,6.3,64,0.00,,,0.00,VWS V13.01,2012-04-16 14:57:00,
2012-04-16 10:02:00,57.2,43.0,30.12,WSW,246,4.9,6.3,59,0.00,,,0.00,VWS V13.01,2012-04-16 15:02:00,
2012-04-16 10:07:00,57.6,43.8,30.12,WSW,248,4.9,4.9,60,0.00,,,0.00,VWS V13.01,2012-04-16 15:07:00,
2012-04-16 10:12:00,58.1,44.3,30.12,WSW,245,4.0,5.4,60,0.00,,,0.00,VWS V13.01,2012-04-16 15:12:00,
2012-04-16 10:17:00,58.5,41.4,30.12,SSW,213,2.7,3.6,53,0.00,,,0.00,VWS V13.01,2012-04-16 15:17:00,
2012-04-16 10:22:00,58.6,42.1,30.12,West,259,5.4,5.8,54,0.00,,,0.00,VWS V13.01,2012-04-16 15:22:00,
2012-04-16 10:27:00,59.0,39.9,30.12,WSW,239,6.3,7.6,49,0.00,,,0.00,VWS V13.01,2012-04-16 15:27:00,
2012-04-16 10:32:00,59.2,38.4,30.12,NW,313,4.0,4.0,46,0.00,,,0.00,VWS V13.01,2012-04-16 15:32:00,
2012-04-16 10:37:00,59.7,41.1,30.12,West,267,6.3,6.3,50,0.00,,,0.00,VWS V13.01,2012-04-16 15:37:00,
2012-04-16 10:42:00,59.7,39.5,30.12,WSW,256,4.0,6.3,47,0.00,,,0.00,VWS V13.01,2012-04-16 15:42:00,
2012-04-16 10:47:00,59.7,38.9,30.12,WSW,256,4.9,4.9,46,0.00,,,0.00,VWS V13.01,2012-04-16 15:47:00,
2012-04-16 10:52:00,59.9,39.1,30.12,WSW,250,3.6,5.8,46,0.00,,,0.00,VWS V13.01,2012-04-16 15:52:00,
2012-04-16 10:58:00,60.1,40.3,30.12,SW,235,5.8,6.7,48,0.00,,,0.00,VWS V13.01,2012-04-16 15:58:00,
2012-04-16 11:03:00,60.4,41.7,30.12,West,265,0.0,3.6,50,0.00,,,0.00,VWS V13.01,2012-04-16 16:03:00,
2012-04-16 11:08:00,60.8,41.0,30.12,South,189,2.7,4.0,48,0.00,,,0.00,VWS V13.01,2012-04-16 16:08:00,
2012-04-16 11:13:00,61.0,40.1,30.12,SW,215,3.6,6.3,46,0.00,,,0.00,VWS V13.01,2012-04-16 16:13:00,
2012-04-16 11:18:00,61.0,40.6,30.12,SW,226,5.4,7.2,47,0.00,,,0.00,VWS V13.01,2012-04-16 16:18:00,
2012-04-16 11:23:00,61.3,41.5,30.12,SW,220,5.4,5.4,48,0.00,,,0.00,VWS V13.01,2012-04-16 16:23:00,
2012-04-16 11:28:00,61.5,40.6,30.12,SW,228,5.4,8.3,46,0.00,,,0.00,VWS V13.01,2012-04-16 16:28:00,
2012-04-16 11:33:00,61.7,41.3,30.12,SSW,210,4.0,4.0,47,0.00,,,0.00,VWS V13.01,2012-04-16 16:33:00,
2012-04-16 11:38:00,61.9,40.3,30.12,South,176,3.6,6.3,45,0.00,,,0.00,VWS V13.01,2012-04-16 16:38:00,
2012-04-16 11:43:00,62.1,41.1,30.12,SW,216,3.6,3.6,46,0.00,,,0.00,VWS V13.01,2012-04-16 16:43:00,
2012-04-16 11:48:00,62.6,40.4,30.15,SW,220,4.9,5.4,44,0.00,,,0.00,VWS V13.01,2012-04-16 16:48:00,
2012-04-16 11:53:00,62.6,41.0,30.15,SW,234,6.3,6.3,45,0.00,,,0.00,VWS V13.01,2012-04-16 16:53:00,
2012-04-16 11:58:00,62.8,41.2,30.15,WSW,242,4.0,6.3,45,0.00,,,0.00,VWS V13.01,2012-04-16 16:58:00,
2012-04-16 12:03:00,63.0,39.5,30.15,WSW,254,3.6,3.6,42,0.00,,,0.00,VWS V13.01,2012-04-16 17:03:00,
2012-04-16 12:08:00,63.1,40.9,30.15,SSE,150,2.7,2.7,44,0.00,,,0.00,VWS V13.01,2012-04-16 17:08:00,
2012-04-16 12:13:00,63.7,40.2,30.15,SSE,155,2.7,4.0,42,0.00,,,0.00,VWS V13.01,2012-04-16 17:13:00,
2012-04-16 12:18:00,63.9,41.5,30.15,West,275,5.4,6.3,44,0.00,,,0.00,VWS V13.01,2012-04-16 17:18:00,
2012-04-16 12:23:00,63.9,39.7,30.15,WNW,286,3.1,5.8,41,0.00,,,0.00,VWS V13.01,2012-04-16 17:23:00,
2012-04-16 12:28:00,64.2,40.7,30.15,SSW,212,3.1,4.0,42,0.00,,,0.00,VWS V13.01,2012-04-16 17:28:00,
2012-04-16 12:33:00,64.8,41.2,30.15,West,268,4.9,5.4,42,0.00,,,0.00,VWS V13.01,2012-04-16 17:33:00,
2012-04-16 12:38:00,64.8,39.2,30.15,South,180,8.7,8.7,39,0.00,,,0.00,VWS V13.01,2012-04-16 17:38:00,
2012-04-16 12:43:00,64.6,41.0,30.15,SSW,213,3.1,4.0,42,0.00,,,0.00,VWS V13.01,2012-04-16 17:43:00,
2012-04-16 12:48:00,64.9,39.4,30.12,SSE,156,2.2,3.6,39,0.00,,,0.00,VWS V13.01,2012-04-16 17:48:00,
2012-04-16 12:54:00,65.3,40.4,30.12,WSW,237,4.9,4.9,40,0.00,,,0.00,VWS V13.01,2012-04-16 17:54:00,
2012-04-16 12:59:00,65.8,40.2,30.12,SW,221,2.7,5.4,39,0.00,,,0.00,VWS V13.01,2012-04-16 17:59:00,
2012-04-16 13:04:00,66.0,41.0,30.12,South,170,2.7,3.6,40,0.00,,,0.00,VWS V13.01,2012-04-16 18:04:00,
2012-04-16 13:09:00,66.0,40.4,30.12,SSE,163,5.8,6.3,39,0.00,,,0.00,VWS V13.01,2012-04-16 18:09:00,
2012-04-16 13:13:00,65.7,40.7,30.12,WSW,242,5.8,5.8,40,0.00,,,0.00,VWS V13.01,2012-04-16 18:13:00,
2012-04-16 13:18:00,65.7,39.4,30.12,WSW,250,0.0,3.1,38,0.00,,,0.00,VWS V13.01,2012-04-16 18:18:00,
2012-04-16 13:23:00,66.0,43.5,30.12,SSW,213,6.3,6.3,44,0.00,,,0.00,VWS V13.01,2012-04-16 18:23:00,
2012-04-16 13:28:00,66.4,41.3,30.12,SSW,201,5.4,8.1,40,0.00,,,0.00,VWS V13.01,2012-04-16 18:28:00,
2012-04-16 13:33:00,66.2,39.9,30.12,South,177,4.0,4.5,38,0.00,,,0.00,VWS V13.01,2012-04-16 18:33:00,
2012-04-16 13:38:00,66.0,41.0,30.12,South,173,3.1,8.3,40,0.00,,,0.00,VWS V13.01,2012-04-16 18:38:00,
2012-04-16 13:44:00,66.2,41.8,30.12,SSE,147,4.9,4.9,41,0.00,,,0.00,VWS V13.01,2012-04-16 18:44:00,
2012-04-16 13:49:00,66.6,42.2,30.12,South,186,4.0,5.4,41,0.00,,,0.00,VWS V13.01,2012-04-16 18:49:00,
2012-04-16 13:54:00,66.7,40.3,30.12,WNW,285,0.0,4.0,38,0.00,,,0.00,VWS V13.01,2012-04-16 18:54:00,
2012-04-16 13:59:00,67.3,41.5,30.12,SSE,164,7.6,7.6,39,0.00,,,0.00,VWS V13.01,2012-04-16 18:59:00,
2012-04-16 14:04:00,67.5,43.0,30.12,SSE,159,5.8,5.8,41,0.00,,,0.00,VWS V13.01,2012-04-16 19:04:00,
2012-04-16 14:09:00,67.6,41.8,30.12,WSW,249,5.4,6.3,39,0.00,,,0.00,VWS V13.01,2012-04-16 19:09:00,
2012-04-16 14:14:00,67.8,42.0,30.12,SSW,198,6.3,6.3,39,0.00,,,0.00,VWS V13.01,2012-04-16 19:14:00,
2012-04-16 14:19:00,68.0,42.1,30.12,SSE,166,5.8,5.8,39,0.00,,,0.00,VWS V13.01,2012-04-16 19:19:00,
2012-04-16 14:24:00,68.0,42.1,30.12,South,184,6.3,6.3,39,0.00,,,0.00,VWS V13.01,2012-04-16 19:24:00,
2012-04-16 14:29:00,68.2,41.6,30.12,SE,131,4.9,7.6,38,0.00,,,0.00,VWS V13.01,2012-04-16 19:29:00,
2012-04-16 14:34:00,67.8,42.6,30.12,South,173,7.2,7.2,40,0.00,,,0.00,VWS V13.01,2012-04-16 19:34:00,
2012-04-16 14:39:00,68.2,42.3,30.12,ESE,104,5.4,5.4,39,0.00,,,0.00,VWS V13.01,2012-04-16 19:39:00,
2012-04-16 14:44:00,68.4,42.5,30.12,SSW,209,5.4,5.4,39,0.00,,,0.00,VWS V13.01,2012-04-16 19:44:00,
2012-04-16 14:49:00,68.4,42.5,30.12,SE,129,4.9,5.8,39,0.00,,,0.00,VWS V13.01,2012-04-16 19:49:00,
2012-04-16 14:54:00,68.7,42.8,30.12,South,173,4.9,6.3,39,0.00,,,0.00,VWS V13.01,2012-04-16 19:54:00,
2012-04-16 14:59:00,68.9,44.9,30.12,SW,215,4.0,4.0,42,0.00,,,0.00,VWS V13.01,2012-04-16 19:59:00,
2012-04-16 15:04:00,68.9,42.3,30.12,SSW,200,2.7,6.7,38,0.00,,,0.00,VWS V13.01,2012-04-16 20:04:00,
2012-04-16 15:09:00,68.5,42.6,30.12,South,183,7.6,7.6,39,0.00,,,0.00,VWS V13.01,2012-04-16 20:09:00,
2012-04-16 15:14:00,68.5,42.0,30.12,SSE,166,3.6,5.8,38,0.00,,,0.00,VWS V13.01,2012-04-16 20:14:00,
2012-04-16 15:19:00,68.5,42.0,30.12,South,172,10.1,10.1,38,0.00,,,0.00,VWS V13.01,2012-04-16 20:19:00,
2012-04-16 15:24:00,68.7,42.8,30.12,SSE,156,4.9,4.9,39,0.00,,,0.00,VWS V13.01,2012-04-16 20:24:00,
2012-04-16 15:29:00,68.9,44.2,30.12,SW,220,5.4,6.3,41,0.00,,,0.00,VWS V13.01,2012-04-16 20:29:00,
2012-04-16 15:34:00,68.9,42.3,30.12,SW,234,5.4,5.4,38,0.00,,,0.00,VWS V13.01,2012-04-16 20:34:00,
2012-04-16 15:39:00,68.7,42.1,30.12,SSE,157,5.8,5.8,38,0.00,,,0.00,VWS V13.01,2012-04-16 20:39:00,
2012-04-16 15:44:00,68.9,44.2,30.12,SW,230,5.8,5.8,41,0.00,,,0.00,VWS V13.01,2012-04-16 20:44:00,
2012-04-16 15:49:00,69.3,43.3,30.12,WSW,245,3.6,5.8,39,0.00,,,0.00,VWS V13.01,2012-04-16 20:49:00,
2012-04-16 15:54:00,69.4,43.4,30.12,South,178,4.9,7.6,39,0.00,,,0.00,VWS V13.01,2012-04-16 20:54:00,
2012-04-16 15:59:00,69.6,43.6,30.12,South,191,4.5,4.9,39,0.00,,,0.00,VWS V13.01,2012-04-16 20:59:00,
2012-04-16 16:04:00,70.0,43.9,30.12,WSW,239,5.4,8.3,39,0.00,,,0.00,VWS V13.01,2012-04-16 21:04:00,
2012-04-16 16:09:00,69.8,43.1,30.12,SSW,193,4.0,6.3,38,0.00,,,0.00,VWS V13.01,2012-04-16 21:09:00,
2012-04-16 16:14:00,70.0,43.2,30.12,SW,233,6.3,6.7,38,0.00,,,0.00,VWS V13.01,2012-04-16 21:14:00,
2012-04-16 16:19:00,70.0,42.5,30.12,SW,227,4.0,4.0,37,0.00,,,0.00,VWS V13.01,2012-04-16 21:19:00,
2012-04-16 16:24:00,69.8,42.4,30.12,SSW,196,7.6,7.6,37,0.00,,,0.00,VWS V13.01,2012-04-16 21:24:00,
2012-04-16 16:29:00,69.6,42.9,30.12,SSW,192,4.0,4.0,38,0.00,,,0.00,VWS V13.01,2012-04-16 21:29:00,
2012-04-16 16:34:00,70.2,42.7,30.12,South,188,6.3,7.6,37,0.00,,,0.00,VWS V13.01,2012-04-16 21:34:00,
2012-04-16 16:39:00,69.8,42.4,30.12,South,178,5.8,7.6,37,0.00,,,0.00,VWS V13.01,2012-04-16 21:39:00,
2012-04-16 16:44:00,69.8,42.4,30.12,SSE,160,5.4,5.4,37,0.00,,,0.00,VWS V13.01,2012-04-16 21:44:00,
2012-04-16 16:49:00,70.0,43.2,30.12,South,188,6.3,6.3,38,0.00,,,0.00,VWS V13.01,2012-04-16 21:49:00,
2012-04-16 16:54:00,70.0,43.2,30.12,South,190,3.1,3.1,38,0.00,,,0.00,VWS V13.01,2012-04-16 21:54:00,
2012-04-16 16:59:00,70.5,43.0,30.12,South,170,4.5,4.9,37,0.00,,,0.00,VWS V13.01,2012-04-16 21:59:00,
2012-04-16 17:05:00,70.5,42.3,30.12,SSE,155,2.7,5.8,36,0.00,,,0.00,VWS V13.01,2012-04-16 22:05:00,
2012-04-16 17:10:00,70.5,42.3,30.12,South,170,5.8,8.1,36,0.00,,,0.00,VWS V13.01,2012-04-16 22:10:00,
2012-04-16 17:15:00,70.3,42.2,30.12,SSE,159,5.4,9.2,36,0.00,,,0.00,VWS V13.01,2012-04-16 22:15:00,
2012-04-16 17:20:00,70.0,42.5,30.12,SSW,207,4.0,4.9,37,0.00,,,0.00,VWS V13.01,2012-04-16 22:20:00,
2012-04-16 17:25:00,70.2,42.0,30.12,SSW,195,6.3,6.3,36,0.00,,,0.00,VWS V13.01,2012-04-16 22:25:00,
2012-04-16 17:30:00,70.2,42.7,30.12,ESE,117,4.0,4.0,37,0.00,,,0.00,VWS V13.01,2012-04-16 22:30:00,
2012-04-16 17:35:00,70.3,42.2,30.12,SSW,192,5.4,6.3,36,0.00,,,0.00,VWS V13.01,2012-04-16 22:35:00,
2012-04-16 17:40:00,70.3,43.5,30.12,SSE,157,5.4,5.4,38,0.00,,,0.00,VWS V13.01,2012-04-16 22:40:00,
2012-04-16 17:45:00,70.5,42.3,30.12,WNW,286,3.6,3.6,36,0.00,,,0.00,VWS V13.01,2012-04-16 22:45:00,
2012-04-16 17:50:00,70.7,42.5,30.12,South,189,3.6,4.0,36,0.00,,,0.00,VWS V13.01,2012-04-16 22:50:00,
2012-04-16 17:55:00,70.5,42.3,30.12,South,191,4.9,5.8,36,0.00,,,0.00,VWS V13.01,2012-04-16 22:55:00,
2012-04-16 18:00:00,70.2,42.0,30.12,SSW,199,5.8,5.8,36,0.00,,,0.00,VWS V13.01,2012-04-16 23:00:00,
2012-04-16 18:05:00,70.3,43.5,30.12,SSW,192,3.1,3.6,38,0.00,,,0.00,VWS V13.01,2012-04-16 23:05:00,
2012-04-16 18:11:00,70.5,43.0,30.12,SW,226,2.7,3.1,37,0.00,,,0.00,VWS V13.01,2012-04-16 23:11:00,
2012-04-16 18:16:00,70.9,44.0,30.12,SW,228,4.0,4.0,38,0.00,,,0.00,VWS V13.01,2012-04-16 23:16:00,
2012-04-16 18:21:00,70.9,44.0,30.12,South,171,3.6,4.0,38,0.00,,,0.00,VWS V13.01,2012-04-16 23:21:00,
2012-04-16 18:26:00,70.5,43.7,30.12,South,174,3.6,3.6,38,0.00,,,0.00,VWS V13.01,2012-04-16 23:26:00,
2012-04-16 18:31:00,70.3,42.9,30.12,South,172,3.6,3.6,37,0.00,,,0.00,VWS V13.01,2012-04-16 23:31:00,
2012-04-16 18:36:00,70.2,42.7,30.12,South,184,2.7,2.7,37,0.00,,,0.00,VWS V13.01,2012-04-16 23:36:00,
2012-04-16 18:41:00,70.0,43.2,30.12,South,189,3.6,3.6,38,0.00,,,0.00,VWS V13.01,2012-04-16 23:41:00,
2012-04-16 18:46:00,69.8,43.8,30.12,SSE,152,4.9,4.9,39,0.00,,,0.00,VWS V13.01,2012-04-16 23:46:00,
2012-04-16 18:51:00,70.0,43.9,30.12,SW,223,2.2,3.6,39,0.00,,,0.00,VWS V13.01,2012-04-16 23:51:00,
2012-04-16 18:56:00,70.0,43.9,30.12,SSW,193,5.8,5.8,39,0.00,,,0.00,VWS V13.01,2012-04-16 23:56:00,
2012-04-16 19:01:00,69.8,43.1,30.12,WSW,237,4.0,4.0,38,0.00,,,0.00,VWS V13.01,2012-04-17 00:01:00,
2012-04-16 19:06:00,69.6,44.2,30.12,South,170,3.1,3.1,40,0.00,,,0.00,VWS V13.01,2012-04-17 00:06:00,
2012-04-16 19:11:00,69.4,44.1,30.12,South,184,0.0,0.0,40,0.00,,,0.00,VWS V13.01,2012-04-17 00:11:00,
2012-04-16 19:16:00,69.3,44.6,30.12,SSW,194,0.0,0.0,41,0.00,,,0.00,VWS V13.01,2012-04-17 00:16:00,
2012-04-16 19:21:00,69.1,44.4,30.12,SSW,194,0.0,0.0,41,0.00,,,0.00,VWS V13.01,2012-04-17 00:21:00,
2012-04-16 19:26:00,68.9,44.2,30.12,SSW,194,0.0,0.0,41,0.00,,,0.00,VWS V13.01,2012-04-17 00:26:00,
2012-04-16 19:31:00,68.9,44.2,30.12,South,175,0.0,0.0,41,0.00,,,0.00,VWS V13.01,2012-04-17 00:31:00,
2012-04-16 19:36:00,68.9,44.9,30.12,South,175,0.0,0.0,42,0.00,,,0.00,VWS V13.01,2012-04-17 00:36:00,
2012-04-16 19:41:00,68.2,45.5,30.12,South,175,0.0,0.0,44,0.00,,,0.00,VWS V13.01,2012-04-17 00:41:00,
2012-04-16 19:47:00,67.3,45.8,30.12,South,175,0.0,0.0,46,0.00,,,0.00,VWS V13.01,2012-04-17 00:47:00,
2012-04-16 19:52:00,66.7,45.9,30.12,South,176,0.0,0.0,47,0.00,,,0.00,VWS V13.01,2012-04-17 00:52:00,
2012-04-16 19:57:00,66.6,45.7,30.12,South,176,0.0,0.0,47,0.00,,,0.00,VWS V13.01,2012-04-17 00:57:00,
2012-04-16 20:02:00,66.4,45.6,30.12,South,175,0.0,0.0,47,0.00,,,0.00,VWS V13.01,2012-04-17 01:02:00,
2012-04-16 20:07:00,66.2,47.0,30.12,South,175,0.0,0.0,50,0.00,,,0.00,VWS V13.01,2012-04-17 01:07:00,
2012-04-16 20:12:00,65.3,47.8,30.12,South,175,0.0,0.0,53,0.00,,,0.00,VWS V13.01,2012-04-17 01:12:00,
2012-04-16 20:17:00,63.9,48.8,30.12,South,172,0.0,0.0,58,0.00,,,0.00,VWS V13.01,2012-04-17 01:17:00,
2012-04-16 20:22:00,63.1,51.6,30.12,South,172,0.0,0.0,66,0.00,,,0.00,VWS V13.01,2012-04-17 01:22:00,
2012-04-16 20:27:00,62.6,51.5,30.12,South,172,0.0,0.0,67,0.00,,,0.00,VWS V13.01,2012-04-17 01:27:00,
2012-04-16 20:32:00,62.2,51.6,30.12,NNE,33,0.0,0.0,68,0.00,,,0.00,VWS V13.01,2012-04-17 01:32:00,
2012-04-16 20:37:00,61.7,51.8,30.12,NNE,32,0.0,0.0,70,0.00,,,0.00,VWS V13.01,2012-04-17 01:37:00,
2012-04-16 20:42:00,61.3,51.9,30.12,NNE,32,0.0,0.0,71,0.00,,,0.00,VWS V13.01,2012-04-17 01:42:00,
2012-04-16 20:47:00,61.0,52.3,30.15,NNE,33,0.0,0.0,73,0.00,,,0.00,VWS V13.01,2012-04-17 01:47:00,
2012-04-16 20:52:00,60.6,52.7,30.15,NNE,33,0.0,0.0,75,0.00,,,0.00,VWS V13.01,2012-04-17 01:52:00,
2012-04-16 20:57:00,59.9,52.7,30.15,NNE,32,2.2,2.7,77,0.00,,,0.00,VWS V13.01,2012-04-17 01:57:00,
2012-04-16 21:02:00,59.7,53.2,30.12,NNE,32,0.0,0.0,79,0.00,,,0.00,VWS V13.01,2012-04-17 02:02:00,
2012-04-16 21:07:00,59.4,53.2,30.12,NNE,32,0.0,0.0,80,0.00,,,0.00,VWS V13.01,2012-04-17 02:07:00,
2012-04-16 21:12:00,59.2,53.0,30.12,North,9,0.0,0.0,80,0.00,,,0.00,VWS V13.01,2012-04-17 02:12:00,
2012-04-16 21:17:00,59.0,52.8,30.15,North,9,0.0,0.0,80,0.00,,,0.00,VWS V13.01,2012-04-17 02:17:00,
2012-04-16 21:22:00,58.8,52.7,30.15,NNE,31,0.0,0.0,80,0.00,,,0.00,VWS V13.01,2012-04-17 02:22:00,
2012-04-16 21:27:00,58.5,52.7,30.15,NNE,31,0.0,0.0,81,0.00,,,0.00,VWS V13.01,2012-04-17 02:27:00,
2012-04-16 21:32:00,58.3,52.8,30.15,North,360,0.0,0.0,82,0.00,,,0.00,VWS V13.01,2012-04-17 02:32:00,
2012-04-16 21:37:00,58.3,53.2,30.15,North,360,0.0,0.0,83,0.00,,,0.00,VWS V13.01,2012-04-17 02:37:00,
2012-04-16 21:42:00,58.1,52.6,30.15,North,360,0.0,0.0,82,0.00,,,0.00,VWS V13.01,2012-04-17 02:42:00,
2012-04-16 21:47:00,57.9,52.5,30.15,North,360,0.0,0.0,82,0.00,,,0.00,VWS V13.01,2012-04-17 02:47:00,
2012-04-16 21:52:00,57.9,52.8,30.15,North,1,0.0,0.0,83,0.00,,,0.00,VWS V13.01,2012-04-17 02:52:00,
2012-04-16 21:57:00,57.7,52.6,30.15,NE,35,0.0,0.0,83,0.00,,,0.00,VWS V13.01,2012-04-17 02:57:00,
2012-04-16 22:02:00,57.6,52.4,30.15,NE,36,0.0,0.0,83,0.00,,,0.00,VWS V13.01,2012-04-17 03:02:00,
2012-04-16 22:07:00,57.4,52.3,30.15,NE,36,0.0,0.0,83,0.00,,,0.00,VWS V13.01,2012-04-17 03:07:00,
2012-04-16 22:12:00,57.2,52.4,30.15,NE,36,0.0,0.0,84,0.00,,,0.00,VWS V13.01,2012-04-17 03:12:00,
2012-04-16 22:17:00,57.0,52.2,30.15,ENE,57,0.0,0.0,84,0.00,,,0.00,VWS V13.01,2012-04-17 03:17:00,
2012-04-16 22:22:00,56.8,52.7,30.15,NE,39,0.0,0.0,86,0.00,,,0.00,VWS V13.01,2012-04-17 03:22:00,
2012-04-16 22:27:00,56.7,52.8,30.15,NE,39,0.0,0.0,87,0.00,,,0.00,VWS V13.01,2012-04-17 03:27:00,
2012-04-16 22:32:00,56.7,52.8,30.18,NE,39,0.0,0.0,87,0.00,,,0.00,VWS V13.01,2012-04-17 03:32:00,
2012-04-16 22:37:00,56.8,53.0,30.18,NE,39,0.0,0.0,87,0.00,,,0.00,VWS V13.01,2012-04-17 03:37:00,
2012-04-16 22:42:00,56.8,52.7,30.18,NNE,27,0.0,0.0,86,0.00,,,0.00,VWS V13.01,2012-04-17 03:42:00,
2012-04-16 22:47:00,56.7,52.2,30.18,NNE,28,0.0,0.0,85,0.00,,,0.00,VWS V13.01,2012-04-17 03:47:00,
2012-04-16 22:52:00,56.7,52.2,30.18,NNE,27,0.0,0.0,85,0.00,,,0.00,VWS V13.01,2012-04-17 03:52:00,
2012-04-16 22:57:00,56.5,52.0,30.18,NNE,27,0.0,0.0,85,0.00,,,0.00,VWS V13.01,2012-04-17 03:57:00,
2012-04-16 23:00:00,56.3,51.9,30.18,NNE,27,0.0,0.0,85,0.00,,,0.00,VWS V13.01,2012-04-17 04:00:00,
2012-04-16 23:05:00,56.1,51.7,30.18,NNE,28,0.0,0.0,85,0.00,,,0.00,VWS V13.01,2012-04-17 04:05:00,
2012-04-16 23:06:00,55.9,51.5,30.18,NNE,27,0.0,0.0,85,0.00,,,0.00,VWS V13.01,2012-04-17 04:06:00,
2012-04-16 23:11:00,55.8,51.3,30.18,NNE,27,0.0,0.0,85,0.00,,,0.00,VWS V13.01,2012-04-17 04:11:00,
2012-04-16 23:16:00,55.6,51.2,30.15,NNE,27,0.0,0.0,85,0.00,,,0.00,VWS V13.01,2012-04-17 04:16:00,
2012-04-16 23:21:00,55.4,51.3,30.15,NNE,27,0.0,0.0,86,0.00,,,0.00,VWS V13.01,2012-04-17 04:21:00,
2012-04-16 23:26:00,55.2,51.4,30.15,NNE,28,0.0,0.0,87,0.00,,,0.00,VWS V13.01,2012-04-17 04:26:00,
2012-04-16 23:31:00,55.0,51.6,30.18,NNE,27,0.0,0.0,88,0.00,,,0.00,VWS V13.01,2012-04-17 04:31:00,
2012-04-16 23:36:00,54.9,51.7,30.18,NNE,28,0.0,0.0,89,0.00,,,0.00,VWS V13.01,2012-04-17 04:36:00,
2012-04-16 23:41:00,54.5,51.3,30.18,NNE,30,0.0,0.0,89,0.00,,,0.00,VWS V13.01,2012-04-17 04:41:00,
2012-04-16 23:46:00,54.5,51.3,30.18,NNE,30,0.0,0.0,89,0.00,,,0.00,VWS V13.01,2012-04-17 04:46:00,
2012-04-16 23:51:00,54.1,50.7,30.18,East,93,0.0,0.0,88,0.00,,,0.00,VWS V13.01,2012-04-17 04:51:00,
2012-04-16 23:56:00,53.8,50.3,30.18,East,93,0.0,0.0,88,0.00,,,0.00,VWS V13.01,2012-04-17 04:56:00,